TimeEST,TemperatureF,Dew PointF,Humidity,Sea Level PressureIn,VisibilityMPH,Wind Direction,Wind SpeedMPH,Gust SpeedMPH,PrecipitationIn,Events,Conditions,WindDirDegrees,DateUTC
12:54 AM,30.9,19.0,61,29.92,10.0,WNW,12.7,19.6,N/A,,Mostly Cloudy,300,2013-03-05 05:54:00
2:54 AM,30.9,19.9,64,29.93,10.0,WNW,12.7,20.7,N/A,,Overcast,300,2013-03-05 07:54:00
3:54 AM,30.9,19.9,64,29.94,10.0,NW,6.9,16.1,N/A,,Scattered Clouds,310,2013-03-05 08:54:00
4:54 AM,30.9,19.9,64,29.95,10.0,NW,13.8,-,N/A,,Clear,310,2013-03-05 09:54:00
5:54 AM,30.0,19.9,66,29.97,10.0,WNW,6.9,-,N/A,,Clear,300,2013-03-05 10:54:00
6:54 AM,30.0,19.9,66,29.99,10.0,WNW,6.9,-,N/A,,Clear,300,2013-03-05 11:54:00
8:54 AM,35.1,21.0,57,30.02,10.0,NNW,8.1,-,N/A,,Clear,340,2013-03-05 13:54:00
9:54 AM,37.9,21.9,53,30.02,10.0,NNE,4.6,-,N/A,,Clear,20,2013-03-05 14:54:00
10:54 AM,39.9,23.0,51,30.00,10.0,NE,5.8,-,N/A,,Clear,40,2013-03-05 15:54:00
11:54 AM,42.1,23.0,47,29.99,10.0,Variable,4.6,-,N/A,,Partly Cloudy,0,2013-03-05 16:54:00
12:54 PM,44.1,25.0,47,29.98,10.0,East,5.8,-,N/A,,Clear,80,2013-03-05 17:54:00
1:54 PM,46.9,25.0,42,29.97,10.0,NNE,10.4,-,N/A,,Partly Cloudy,20,2013-03-05 18:54:00
2:54 PM,46.0,24.1,42,29.98,10.0,East,5.8,-,N/A,,Clear,80,2013-03-05 19:54:00
3:54 PM,45.0,23.0,42,29.97,10.0,Variable,5.8,-,N/A,,Clear,0,2013-03-05 20:54:00
4:54 PM,44.1,24.1,45,29.97,10.0,ENE,9.2,-,N/A,,Clear,60,2013-03-05 21:54:00
5:54 PM,39.9,24.1,53,29.99,10.0,NE,10.4,-,N/A,,Clear,50,2013-03-05 22:54:00
6:54 PM,37.0,23.0,57,30.01,10.0,NNE,6.9,-,N/A,,Clear,30,2013-03-05 23:54:00
7:54 PM,35.1,24.1,64,30.03,10.0,NNE,3.5,-,N/A,,Mostly Cloudy,20,2013-03-06 00:54:00
8:54 PM,36.0,25.0,64,30.02,10.0,NE,8.1,-,N/A,,Overcast,40,2013-03-06 01:54:00
9:54 PM,35.1,25.0,67,30.01,10.0,NE,8.1,-,N/A,,Overcast,40,2013-03-06 02:54:00
10:54 PM,35.1,25.0,67,30.00,10.0,NE,5.8,-,N/A,,Overcast,40,2013-03-06 03:54:00
11:54 PM,35.1,25.0,67,29.99,10.0,NNE,8.1,-,N/A,,Overcast,30,2013-03-06 04:54:00